Spokane, WA

8:07 AM PDT on June 23, 2017 (GMT -0700)
Spokane International

Weather History for KGEG - May, 2013

Change the Weather History Date:

Thursday, May 23, 2013

  Actual Average Record
Temperature  
Mean Temperature 48 °F 57 °F  
Max Temperature 59 °F 69 °F 90 °F (2001)
Min Temperature 37 °F 46 °F 32 °F (1964)
Degree Days  
Heating Degree Days 17 8  
Month to date heating degree days 177 260  
Since 1 July heating degree days 6005 6396  
Cooling Degree Days 0 1  
Month to date cooling degree days 30 2  
Year to date cooling degree days 30 2  
Moisture  
Dew Point 34 °F    
Average Humidity 63    
Maximum Humidity 92    
Minimum Humidity 33    
Precipitation  
Precipitation 0.00 in 0.06 in 1.60 in (1948)
Month to date precipitation 0.50 1.13  
Year to date precipitation 4.63 7.14  
Snow  
Snow 0.00 in 0.00 in T in (1993)
Month to date snowfall 0.1  
Since 1 July snowfall 44.9  
Snow Depth -    
Sea Level Pressure  
Sea Level Pressure 30.00 in    
Wind  
Wind Speed 5 mph (NE)    
Max Wind Speed 12 mph    
Max Gust Speed 14 mph    
Visibility 8 miles    
Events Fog    
T = Trace of Precipitation, MM = Missing Value Source: NWS Daily Summary

Daily Weather History Graph

Daily Weather History Graph

Search for Another Location

Airport or City:

Trip Planner

Search our weather history database for the weather conditions in past years. The results will help you decide how hot, cold, wet, or windy it might be!

Date:

Astronomy

May. 23, 2013 Rise Set
Actual Time 5:03 AM PDT 8:31 PM PDT
Civil Twilight 4:25 AM PDT 9:09 PM PDT
Nautical Twilight 3:35 AM PDT 9:59 PM PDT
Astronomical Twilight 2:28 AM PDT 11:07 PM PDT
Moon 7:04 PM PDT 3:59 AM PDT
Length of Visible Light 16h 43m
Length of Day
15h 27m
Waxing Gibbous, 97% of the Moon is Illuminated
May 23
Waxing Gibbous
May 24
Full
May 31
Last Quarter
Jun 8
New
Jun 16
First Quarter

Hourly Weather History & Observations

Time (PDT) Temp. Windchill Dew Point Humidity Pressure Visibility Wind Dir Wind Speed Gust Speed Precip Events Conditions
12:53 AM 39.0 °F 34.8 °F 36.0 °F 89% 30.02 in 10.0 mi ENE 5.8 mph - N/A   Partly Cloudy
1:53 AM 37.9 °F 32.7 °F 36.0 °F 93% 30.03 in 10.0 mi ENE 6.9 mph - N/A   Clear
2:53 AM 37.9 °F 34.4 °F 36.0 °F 93% 30.02 in 10.0 mi ENE 4.6 mph - N/A   Scattered Clouds
3:26 AM 37.4 °F 30.8 °F 35.6 °F 93% 29.99 in 7.0 mi ENE 9.2 mph - N/A   Overcast
3:53 AM 37.9 °F 32.1 °F 36.0 °F 93% 30.02 in 7.0 mi NE 8.1 mph - N/A   Overcast
4:26 AM 37.4 °F 32.8 °F 35.6 °F 93% 29.99 in 7.0 mi NE 5.8 mph - N/A   Overcast
4:53 AM 37.9 °F 33.5 °F 36.0 °F 93% 30.02 in 7.0 mi NE 5.8 mph - N/A   Overcast
5:16 AM 37.4 °F 31.4 °F 35.6 °F 93% 29.99 in 1.0 mi NE 8.1 mph - N/A   Overcast
5:25 AM 37.4 °F 30.8 °F 35.6 °F 93% 29.99 in 0.5 mi NE 9.2 mph - N/A   Overcast
5:53 AM 37.0 °F 33.3 °F 36.0 °F 96% 30.03 in 0.5 mi ENE 4.6 mph - N/A   Overcast
6:53 AM 37.9 °F 33.5 °F 36.0 °F 93% 30.04 in 1.0 mi NE 5.8 mph - N/A   Overcast
7:09 AM 37.4 °F 32.1 °F 35.6 °F 93% 30.00 in 2.0 mi ENE 6.9 mph - N/A   Overcast
7:36 AM 39.2 °F 35.9 °F 37.4 °F 93% 30.00 in 7.0 mi ENE 4.6 mph - N/A Fog Patches of Fog
7:53 AM 39.9 °F 36.7 °F 37.0 °F 89% 30.04 in 10.0 mi East 4.6 mph - N/A   Overcast
8:00 AM 41.0 °F 38.0 °F 37.4 °F 87% 30.00 in 10.0 mi East 4.6 mph - N/A   Overcast
8:53 AM 43.0 °F 40.3 °F 37.0 °F 80% 30.03 in 10.0 mi NNE 4.6 mph - N/A   Mostly Cloudy
9:53 AM 48.0 °F - 37.9 °F 68% 30.02 in 10.0 mi East 5.8 mph - N/A   Scattered Clouds
10:53 AM 50.0 °F - 36.0 °F 59% 30.01 in 10.0 mi Variable 3.5 mph - N/A   Mostly Cloudy
11:53 AM 52.0 °F - 32.0 °F 47% 30.00 in 10.0 mi West 4.6 mph - N/A   Mostly Cloudy
12:53 PM 54.0 °F - 32.0 °F 43% 30.00 in 10.0 mi Variable 4.6 mph - N/A   Mostly Cloudy
1:53 PM 54.0 °F - 32.0 °F 43% 30.00 in 10.0 mi Calm Calm - N/A   Mostly Cloudy
2:53 PM 55.0 °F - 33.1 °F 43% 30.00 in 10.0 mi NNE 6.9 mph - N/A   Mostly Cloudy
3:53 PM 55.9 °F - 33.1 °F 42% 29.99 in 10.0 mi Variable 5.8 mph - N/A   Mostly Cloudy
4:53 PM 57.0 °F - 30.0 °F 36% 29.99 in 10.0 mi Variable 3.5 mph - N/A   Mostly Cloudy
5:53 PM 57.9 °F - 32.0 °F 37% 29.98 in 10.0 mi Calm Calm - N/A   Scattered Clouds
6:53 PM 57.9 °F - 28.9 °F 33% 29.97 in 10.0 mi NNE 5.8 mph - N/A   Scattered Clouds
7:53 PM 55.9 °F - 32.0 °F 40% 29.95 in 10.0 mi NNW 8.1 mph - N/A   Scattered Clouds
8:53 PM 52.0 °F - 32.0 °F 47% 29.96 in 10.0 mi NW 4.6 mph - N/A   Scattered Clouds
9:53 PM 52.0 °F - 32.0 °F 47% 29.97 in 10.0 mi Calm Calm - N/A   Partly Cloudy
10:53 PM 46.0 °F 43.9 °F 35.1 °F 66% 29.97 in 10.0 mi WSW 4.6 mph - N/A   Partly Cloudy
11:53 PM 41.0 °F 39.0 °F 34.0 °F 76% 29.96 in 10.0 mi West 3.5 mph - N/A   Partly Cloudy